Location: Poughquag
(41.6090°N, 73.6820°W)
Time: 05:33:30
(UTC-04:00)

A-11 Canister half - Pass Details

Date: 29 May 2020
Orbit: 1514 x 1686 km, 47.2° (Epoch: 06 July)

Event Time Altitude Azimuth Distance (km) Brightness Sun altitude
Rises 20:55:06 0° 297° (WNW) 4,664 13.8 -6.2°
Reaches altitude 10° 20:58:14 10° 292° (WNW) 3,676 12.5 -6.6°
Maximum altitude 21:07:00 51° 221° (SW) 1,850 9.5 -7.9°
Drops below altitude 10° 21:15:52 10° 148° (SSE) 3,709 10.4 -9.2°
Enters shadow 21:16:15 - 148° (SSE) 3,825 10.5 -9.3°
